Regional Weather Roundup
Issued by NWS

Home | Current Version | Previous Version | Text Only | Print | Product List | Glossary On
Versions: 1 2 3 4 5 6 7 8 9 10 11 12 13 14 15 16 17 18 19 20 21 22 23 24 25 26 27 28 29 30 31 32 33 34 35 36 37 38 39 40 41 42 43 44 45 46 47 48 49 50
000
ASUS45 KPSR 230410
RWRAZ

ARIZONA HOURLY REGIONAL WEATHER ROUNDUP
NATIONAL WEATHER SERVICE PHOENIX AZ
900 PM MST WED FEB 22 2017

NOTE: FAIR INDICATES FEW OR NO CLOUDS BELOW 12,000 FEET WITH NO
SIGNIFICANT WEATHER AND/OR OBSTRUCTIONS TO VISIBILITY.

AZZ001>003-036-230500-
NORTHWEST ARIZONA

CITY           SKY/WX    TMP DP  RH WIND       PRES   REMARKS
BULLHEAD CITY  CLEAR     59  25  27 S6        29.86S
KINGMAN        PTCLDY    48  16  27 SW18      29.86R
$$

AZZ004>008-015-016-018-230500-
NORTH CENTRAL ARIZONA

CITY           SKY/WX    TMP DP  RH WIND       PRES   REMARKS
GRAND CANYON   CLEAR     38  28  67 SW20      29.81S WCI  28
WILLIAMS       CLOUDY    41  32  70 SW20G26   29.82F
PRESCOTT       CLEAR     49  36  61 SW16G23   29.83S
FLAGSTAFF      PTCLDY    40  31  70 SW22G32   29.85F WCI  30
PAYSON         CLOUDY    52  36  54 S12G25    29.90F
PAGE           CLEAR     55  11  17 SW13G23   29.65S
$$

AZZ009>014-017-230500-
NORTHEAST ARIZONA

CITY           SKY/WX    TMP DP  RH WIND       PRES   REMARKS
WINSLOW        PTCLDY    51  28  41 S21       29.79F
SAINT JOHNS    CLOUDY    55  22  27 SW28G37   29.87F
WINDOW ROCK    CLOUDY    49  21  33 SW20G31   29.84F
SHOW LOW       CLOUDY    48  19  32 S20G26    29.92F
$$

AZZ023-230500-
GREATER PHOENIX AREA

CITY           SKY/WX    TMP DP  RH WIND       PRES   REMARKS
PHOENIX        MOCLDY    69  49  48 SW3       29.76F
BUCKEYE        CLEAR     61  37  41 W8        29.79S
LUKE AFB       PTCLDY    65  42  43 CALM      29.77S
DEER VALLEY    MOCLDY    67  38  34 SW7       29.78F
SCOTTSDALE     CLOUDY    68  42  38 CALM      29.80F
MESA-GATEWAY   MOCLDY    70  46  43 VRB3      29.80F
CHANDLER       CLEAR     70  37  30 S6        29.79S
$$

AZZ027-028-230500-
SOUTHWEST MARICOPA COUNTY AND PINAL COUNTY

CITY           SKY/WX    TMP DP  RH WIND       PRES   REMARKS
CASA GRANDE    NOT AVBL
GILA BEND      MOCLDY    69  38  31 SW10      29.79R
$$

AZZ503-504-507>509-230500-
SOUTHEAST ARIZONA

CITY           SKY/WX    TMP DP  RH WIND       PRES   REMARKS
TUCSON         PTCLDY    68  41  37 SW6       29.88S
DAVIS-MONTHAN  MOCLDY    65  42  42 W5        29.87F
NOGALES        PTCLDY    59  39  47 S5        29.95S
SIERRA VISTA   PTCLDY    54  37  53 W10       29.97F
DOUGLAS        CLEAR     65  34  31 VRB6      29.94S
SAFFORD        LGT RAIN  64  39  39 N9        29.83F
$$

AZZ020-021-025-026-031-230500-
SOUTHWEST ARIZONA

CITY           SKY/WX    TMP DP  RH WIND       PRES   REMARKS
YUMA           CLEAR     62  35  36 NW13      29.87R
$$

CAZ031-033-041-043-047-048-061-230500-
SOUTHERN CALIFORNIA

CITY           SKY/WX    TMP DP  RH WIND       PRES   REMARKS
DOWNTOWN L.A.  CLEAR     60  35  39 CALM      30.04R
L.A. AIRPORT   CLEAR     59  37  44 W6        30.04R
SAN DIEGO      PTCLDY    58  45  62 W7        30.09S
BURBANK        CLEAR     54  31  41 NW6       30.03R
ONTARIO        PTCLDY    50  44  80 W5        30.03S
RIVERSIDE      CLEAR     53  44  71 CALM      30.04R
PALM SPRINGS   CLEAR     63  37  38 NW7G25    29.90R
EL CENTRO NAS  PTCLDY    59  33  37 W22       29.96R
BLYTHE         CLEAR     63  36  36 NW18      29.86R
NEEDLES        CLEAR     61  22  22 W14G25    29.86S
$$

NVZ020-UTZ003-230500-
SOUTHERN NEVADA-UTAH

CITY           SKY/WX    TMP DP  RH WIND       PRES   REMARKS
LAS VEGAS      PTCLDY    49  30  48 NW22G32   29.83R
SALT LAKE CITY LGT SNOW  33  29  85 NE12      29.80F FOG     WCI  24
$$

NMZ009-TXZ055-230500-
NEW MEXICO-WEST TEXAS

CITY           SKY/WX    TMP DP  RH WIND       PRES   REMARKS
ALBUQUERQUE    CLOUDY    54  30  40 N12G20    29.89S
EL PASO        CLEAR     64  28  25 S9        29.87R
$$


........................KEY........................
SKY/WX - SKY CONDITION/WEATHER
TMP    - TEMPERATURE IN FAHRENHEIT
DP     - DEW POINT IN FAHRENHEIT
RH     - RELATIVE HUMIDITY IN PERCENT
WIND   - DIRECTION AND SPEED IN MILES PER HOUR (MPH)
VRB    - VARIABLE WIND DIRECTION
PRES   - MEAN SEA LEVEL PRESSURE IN INCHES OF MERCURY
         F - FALLING PRESSURE   R - RISING PRESSURE
         S - STEADY PRESSURE
VSB    - VISIBILITY IN MILES
HX     - HEAT INDEX IN FAHRENHEIT
WCI    - WIND CHILL INDEX IN FAHRENHEIT
TC     - TEMPERATURE IN CELSIUS WHICH IS ALSO KNOWN AS
         TEMPERATURE IN CENTIGRADE
AFB    - AIR FORCE BASE
         LUKE AFB IS LUKE AIR FORCE BASE
         DAVIS-MONTHAN IS DAVIS-MONTHAN AIR FORCE BASE
NAS    - NAVAL AIR STATION
         EL CENTRO NAS IS EL CENTRO NAVAL AIR STATION
N/A    - NOT AVAILABLE




USA.gov is the U.S. government's official web portal to all federal, state and local government web resources and services.